Tracking 28790 objects as of 19-Apr-2024
HD Live streaming from Space Station
objects crossing your sky now

FENGYUN 1C DEB

Track FENGYUN 1C DEB now!
10-day predictions


NORAD ID: 30648
Int'l Code: 1999-025APF
Perigee: 753.4 km
Apogee: 819.0 km
Inclination: 98.7 °
Period: 100.4 minutes
Semi major axis: 7157 km
RCS: 0.034 m2 (small)
Launch date: May 10, 1999
Source: People's Republic of China (PRC)
Launch site: Taiyaun Space Center, China (TSC)

Note: This is SATELLITE DEBRIS
Your satellite tracking list
Your tracking list is empty




NASA's NSSDC Master Catalog

Two Line Element Set (TLE):
1 30648U 99025APF 24109.17180659  .00014435  00000-0  51365-2 0  9998
2 30648  98.6564 190.4453 0045796 130.5989 259.5569 14.33794956891711
Source of the keplerian elements: AFSPC